Flag for U.S.A. Weather past 2 weeks in West Palm Beach, Florida, U.S.A.

Now
78 °F

Passing clouds.


Feels Like: 80 °F
Forecast: 75 / 83 °F
Wind: 12 mph from East

Location: Palm Beach International Airport

Current Time: May 29, 2015 at 12:36:55 AM

Latest Report: May 28, 2015 at 10:53 PM


Visibility: 10 mi

Pressure: 30.10 "Hg

Humidity: 58%

Dew point: 62 °F

Location of West Palm BeachLocation

Historic Weather in West Palm Beach — Graph

°F

West Palm Beach temperature yesterday

Maximum temperature yesterday: 85 °F (at 1:53 PM)
Minimum temperature yesterday: 77 °F (at 5:53 AM)
Average temperature yesterday: 81 °F

Past Weeks' High & Low Weather Summary

 TemperatureHumidityPressure
High89 °F (May 21, 11:53 AM)94% (May 23, 3:53 AM)30.22 "Hg (May 23, 3:53 AM)
Low72 °F (May 20, 3:53 AM)45% (May 19, 1:53 PM)29.94 "Hg (May 20, 6:53 PM)
Average81 °F69%30.12 "Hg
* Reported May 13 10:00 PM — May 28 10:53 PM, West Palm Beach, Weather by CustomWeather, © 2015

Note: Actual official high and low records may vary slightly from our data, if they occured in-between our weather recording intervals... More about our weather records

Advertising

West Palm Beach weather history for previous 24 hours

 ConditionsComfort  
Time TempWeatherWind HumidityBarometerVisibility
10:53 PM
Thu, May 28
78 °FPassing clouds.12 mph58%30.10 "Hg10 mi
9:53 PM79 °FPassing clouds.13 mph60%30.09 "Hg10 mi
8:53 PM79 °FScattered clouds.9 mph58%30.08 "Hg10 mi
7:53 PM80 °FBroken clouds.12 mph56%30.08 "Hg10 mi
6:53 PM81 °FBroken clouds.13 mph53%30.08 "Hg10 mi
5:53 PM83 °FScattered clouds.12 mph51%30.07 "Hg10 mi
4:53 PM84 °FBroken clouds.16 mph51%30.08 "Hg10 mi
3:53 PM83 °FBroken clouds.15 mph55%30.08 "Hg10 mi
2:53 PM85 °FBroken clouds.16 mph50%30.10 "Hg10 mi
1:53 PM85 °FBroken clouds.16 mph53%30.11 "Hg10 mi
12:53 PM82 °FPartly sunny.15 mph65%30.12 "Hg7 mi
11:53 AM79 °FLight rain. Partly sunny.12 mph69%30.13 "Hg7 mi
10:53 AM84 °FScattered clouds.16 mph48%30.13 "Hg10 mi
9:53 AM83 °FScattered clouds.17 mph51%30.12 "Hg10 mi
8:53 AM82 °FScattered clouds.20 mph51%30.11 "Hg10 mi
7:53 AM79 °FScattered clouds.16 mph54%30.10 "Hg10 mi
6:53 AM78 °FPassing clouds.12 mph54%30.09 "Hg10 mi
5:53 AM77 °FPassing clouds.14 mph60%30.08 "Hg10 mi
4:53 AM78 °FPassing clouds.13 mph60%30.07 "Hg10 mi
3:53 AM78 °FPassing clouds.13 mph58%30.07 "Hg10 mi
2:53 AM78 °FPassing clouds.15 mph62%30.08 "Hg10 mi
1:53 AM78 °FPassing clouds.12 mph66%30.10 "Hg10 mi
12:53 AM79 °FPassing clouds.13 mph60%30.12 "Hg10 mi
Weather by CustomWeather, © 2015

See weather overviewHow to use our weather pages